Погода в Николаевке

Украина / Луганская область     48°46′19″N   38°20′11″E
В апреле 2022 года жителям России запретили посещать сайт meteo.paraplan.net по решению Генеральной прокуратуры. Аудитория сайта уменьшилась в 10 раз. Владельцы сайта не видят смысла в поддержке погодного сервера в таких условиях. Сайт будет закрыт в октябре.
темп.,
°C
ветер,
м/с
пор.,
м/с
влажн.,
%
обл.,
%
осадки,
мм/ч
давл.,
гПа
погр.,
м
4 октября, вт
вт400:00+11ю386788 0.0 1012146
03:00+11ю497470 0.0 1012155
06:00+12ю71186100 0.6 1013444
09:00+14ю7117534 0.9 1013573
12:00+18ююз8105292 0.3 10131803
15:00+19юз7104020 0.4 10132309
18:00+15зюз510513 0.0 1015286
21:00+12з376263 0.0 1018173
5 октября, ср
ср500:00+9зюз25730 0.0 1020119
03:00+8зюз23760 0.0 102051
06:00+8юз38760 0.0 1021191
09:00+11зюз58630 0.0 1022530
12:00+15зюз67500 0.0 10221282
15:00+15з794877 0.0 10221582
18:00+14зсз4852100 0.0 1023436
21:00+12зсз386133 0.0 1024272
6 октября, чт
чт600:00+9зсз2577100 0.0 1025168
03:00+8з237936 0.0 102549
06:00+7з22855 0.0 102526
09:00+11з336964 0.0 1026317
12:00+15зсз445236 0.0 1025981
15:00+17зсз454794 0.0 10241699
18:00+15зсз2352100 0.0 102567
21:00+15юз2255100 0.0 102520
7 октября, пт
пт700:00+12зюз346422 0.0 102669
03:00+13юз2562100 0.0 1025148
06:00+12зюз22679 0.0 102543
09:00+14зюз34577 0.0 1025305
12:00+18зсз34445 0.0 10251016
15:00+20сз334158 0.0 10241306
18:00+16ссз225549 0.0 102518
21:00+14ссв226215 0.0 102614
8 октября, сб
сб800:00+13св22725 0.0 102621
03:00+12всв22805 0.0 102623
06:00+11в22840 0.0 102724
09:00+14в45660 0.0 1026296
12:00+19вюв44470 0.0 10251051
15:00+20в45424 0.0 10231479
18:00+16вюв36515 0.0 102392
21:00+14вюв37575 0.0 1023137